Lid_Strength_Index
2 5 6 6 13 15 17 14 12 11 9 6 5 7 7 6 8 11 2 1 1 1 -0 -0 -1 -1 -1 -1 -1 -1 -1 -1 -1 -1 -1 -1 -1 -1 -1 -1 -1 -1 -1 -1 -1 -1 -1 -1 -1
2 5 7 10 15 17 16 14 13 11 9 5 5 6 7 8 4 4 3 1 0 0 -0 -0 -1 -1 -1 -1 -1 -1 -1 -1 -1 -1 -1 -1 -1 -1 -1 -1 -1 -1 -1 -1 -1 -1 -1 -1 -1
3 5 10 14 16 17 16 13 12 10 9 6 7 5 6 7 4 4 1 1 0 0 -0 -0 -1 -1 -1 -1 -1 -1 -1 -1 -1 -1 -1 -1 -1 -1 -1 -1 -1 -1 -1 -1 -1 -1 -1 -1 -1
8 8 10 15 16 14 13 11 11 10 9 7 5 8 5 2 3 2 1 1 1 0 -0 -0 -1 -1 -1 -1 -1 -1 -1 -1 -1 -1 -1 -1 -1 -1 -1 -1 -1 -1 -1 -1 -1 -1 -1 -1 -1
9 11 15 18 16 13 12 11 11 10 10 9 6 7 6 3 2 1 1 1 1 1 -0 -0 -1 -1 -1 -1 -1 -1 -1 -1 -1 -1 -1 -1 -1 -1 -1 -1 -1 -1 -1 -1 -1 -1 -1 -1 -2
12 13 17 17 15 11 11 10 11 10 9 9 6 7 6 3 3 2 1 1 0 1 0 -0 -1 -1 -1 -1 -1 -1 -1 -1 -1 -1 -1 -1 -1 -1 -1 -1 -1 -1 -1 -1 -1 -1 -1 -1 -1
13 15 17 16 14 12 10 10 11 10 10 9 5 8 6 4 2 1 1 1 1 0 0 -0 -0 -0 -1 -1 -1 -1 -1 -1 -1 -1 -1 -1 -1 -1 -1 -1 -1 -1 -1 -1 -1 -1 -1 -1 -1
11 13 16 15 14 13 10 10 11 10 8 6 4 8 8 4 2 1 1 1 1 1 0 0 -0 -0 -0 -0 -1 -1 -1 -1 -1 -1 -1 -1 -1 -1 -1 -1 -1 -1 -1 -1 -1 -1 -1 -1 -1
9 14 17 16 14 13 10 10 9 7 8 8 6 5 4 3 2 2 3 2 2 1 1 0 0 0 -0 -0 -0 -1 -1 -1 -1 -1 -1 -0 0 0 -0 -1 -1 -1 -1 -1 -1 -1 -1 -1 -1
10 15 14 11 11 12 11 10 8 9 9 8 6 4 3 3 3 4 4 4 3 3 1 1 0 0 0 -0 -0 -0 -0 -0 -0 -0 -0 0 1 1 -0 -1 -1 -1 -1 -1 -1 -1 -1 -1 0
10 12 10 10 9 10 10 9 8 9 10 9 6 5 4 3 4 4 4 3 3 2 2 1 1 0 0 0 -0 -0 -0 -0 -0 -0 0 0 0 0 0 1 0 0 -1 0 -0 -0 0 0 0
11 9 9 8 8 9 10 10 9 10 9 8 7 4 4 4 4 4 4 3 3 2 2 1 0 1 1 0 1 0 0 -0 0 0 0 0 0 0 0 0 0 0 0 0 0 0 0 0 0
11 9 8 8 8 8 7 10 10 10 8 8 7 7 4 4 4 3 3 3 2 3 2 1 1 1 2 0 0 0 0 0 0 0 0 0 0 1 0 0 0 0 0 0 0 0 0 1 0
10 10 9 8 8 8 9 9 11 9 8 8 8 6 5 4 4 4 3 3 3 2 2 1 1 2 0 1 1 1 0 0 0 0 -0 1 0 0 1 1 1 0 0 0 1 1 1 2 2
10 12 10 9 10 10 9 10 10 9 9 9 9 8 7 7 5 4 3 3 3 3 2 2 2 1 1 1 1 1 1 1 1 1 1 0 1 0 1 1 1 0 1 1 1 1 2 2 2
10 11 14 11 9 9 9 12 8 7 9 9 9 9 8 11 11 8 5 3 2 3 2 2 2 2 1 1 1 1 1 1 1 1 0 -0 -0 0 1 1 2 1 1 2 2 2 2 2 2
12 14 13 11 9 9 10 11 8 7 8 9 9 9 9 9 11 10 8 5 2 3 2 2 2 2 1 1 1 1 0 1 0 0 0 0 -0 -0 0 1 1 1 1 1 1 1 2 2 2
14 13 12 12 10 9 11 11 8 8 8 8 9 9 9 9 9 9 9 6 2 2 2 2 2 2 1 1 1 1 1 1 0 0 1 1 1 1 1 0 0 0 1 2 1 2 2 2 2
10 11 12 10 8 9 10 10 9 8 8 8 9 9 10 9 8 8 7 4 2 2 2 2 2 2 2 2 2 2 2 1 1 0 0 1 2 1 2 1 1 1 1 2 2 2 2 2 2
10 12 12 10 8 9 10 11 10 9 8 7 7 9 8 10 10 8 8 5 3 3 2 2 2 2 1 1 1 1 1 1 1 0 0 1 1 1 2 1 1 1 1 1 2 2 3 3 2
11 11 12 12 9 8 10 12 11 9 8 7 7 6 7 7 8 9 8 8 3 3 3 2 2 2 1 1 1 2 2 2 2 2 1 0 1 1 1 1 0 0 1 1 2 2 3 4 3
12 9 9 10 12 14 10 15 11 11 10 8 8 7 7 7 7 7 8 7 4 3 2 2 2 2 1 1 2 2 3 3 2 2 1 1 1 1 0 0 0 1 1 2 2 2 4 3 3
12 9 10 11 14 15 13 16 14 11 11 10 9 8 7 7 7 7 7 7 3 3 2 2 2 2 1 1 1 2 2 2 2 2 2 2 2 2 1 1 1 1 2 2 2 3 3 2 3
8 10 11 12 14 19 14 15 13 12 11 10 9 8 7 7 8 7 7 7 4 3 2 2 2 2 2 1 1 2 2 2 2 2 2 2 2 2 1 1 2 1 1 2 2 2 2 3 3
10 14 19 20 20 21 13 16 13 10 9 8 8 8 8 8 9 8 8 7 5 4 3 3 2 3 2 2 2 2 2 2 2 2 2 2 3 2 2 2 2 3 2 2 2 2 2 2 2
12 14 18 23 22 19 13 17 13 8 8 7 6 7 7 8 7 7 7 7 5 3 3 3 3 3 2 2 2 2 2 2 3 2 2 2 2 3 3 3 2 2 2 2 2 1 1 1 1
13 16 12 16 15 19 17 14 10 8 8 7 7 7 8 8 8 7 6 7 3 3 3 3 3 3 2 2 3 3 2 2 2 2 2 2 3 3 3 3 3 3 3 2 2 2 2 3 2
11 10 17 16 22 23 18 17 15 11 10 9 9 8 8 8 9 8 6 7 3 3 3 3 3 3 2 3 3 3 2 3 3 3 3 3 3 3 3 3 4 5 6 6 6 7 6 6 5
14 15 14 15 17 20 20 16 12 11 11 10 9 8 8 7 7 8 6 5 4 3 3 4 5 3 3 3 4 4 4 4 3 4 4 4 4 4 4 5 6 8 8 8 8 8 7 6 7
11 13 13 18 19 17 18 17 10 11 11 9 9 8 7 7 6 5 6 5 6 3 3 3 3 3 3 4 4 4 4 4 4 4 5 5 7 7 8 8 9 9 9 8 8 8 8 8 8